Location: *
(34.8620°S, 39.3380°E)
Time: 22:56:27
(UTC+00:00)

CZ-4B DEB - Pass Details

Date: 27 July 2021
Orbit: 840 x 861 km, 99.1° (Epoch: 20 September)

Event Time Altitude Azimuth Distance (km) Brightness Sun altitude
Rises 03:02:48 0° 10° (N) 3,387 7.6 -16.1°
Reaches altitude 10° 03:05:09 10° 7° (N) 2,462 6.9 -15.6°
Maximum altitude 03:10:36 72° 283° (WNW) 897 4.2 -14.5°
Drops below altitude 10° 03:16:10 10° 198° (SSW) 2,505 6.4 -13.4°
Sets 03:18:35 0° 195° (SSW) 3,452 7.1 -12.9°
